FENGYUN 1C DEB, 30382

Orbit data source: Space-Track

FENGYUN 1C DEB, 30382 is space debris in SSO originally from a launch on Mon, 10 May 1999 UTC launched from the Taiyaun Space Center, China (TSC). Fengyun 1C debris stems from the Chinese weather satellite Fengyun-1C, which was intentionally destroyed by a Chinese anti-satellite missile in 2007. This event dramatically increased the amount of space debris, with thousands of trackable fragments posing hazards to satellites and human spaceflight. The Fengyun 1C debris cloud has become a focal point in discussions about space sustainability and the need for international regulations to prevent the creation of new debris.

Loading next visibility...
Identifier
30382, 1999-025ACV
Orbit
SSO
Country
Flag of CNCN / PRC
Related business
Manufacturer
Unknown
Mission
Spacecraft
Bus & Motor
Unknown
Mass
Unknown
Launch date (UTC)
1999-05-10 (26 years ago)
Launch vehicle
Unknown
Launch site
Taiyaun Space Center, China (TSC)
Object type
Payload
Rocket body
Debris
Shape & HBR
Unknown shape, 0.1 m
Radar Cross Section
Small (<0.1 m²)

Expand to show TLE details & history
Last TLE update: 16 hours ago

TLE from 16 hours ago
0 FENGYUN 1C DEB
1 30382U 99025ACV 25304.69686785  .00003070  00000-0  11680-2 0  9998
2 30382  98.5044 344.3618 0157222 119.7138 359.2207 14.25016005969361
Epoch: 2025-10-31T16:43Z
TLE epoch observation values (Epoch: 2025-10-31T16:43:29.382Z)
Latitude
60.06794°
Longitude
-111.77882°
Altitude
705.63 km
Speed
7.568 km/s
True Right ascension
11h 57m 19s
True Declination
59° 55' 04"
Sunlit
Object was in daylight at epoch
Visualization orbit readout
Latitude
Unknown
Longitude
Unknown
Altitude
Unknown
Speed
Unknown
Apparent Right ascension
Unknown
Apparent Declination
Unknown
Sunlit
N/A
Visualization observer readout
Local Sidereal Time
04:17:57
Azimuth
Unknown
Elevation
Unknown
Doppler factor
Unknown
Orbital elements
Apogee altitude
918.524 km
Perigee altitude
692.636 km
Semi-major axis
7,183.717 km
Eccentricity
0.01572
Inclination
98.5044°
RAAN
344.3618°
Arg. of periapsis
119.7138°
True anomaly
359.19571°
Mean anomaly
359.2207°
Eccentric anomaly
359.20825°
Mean motion
3.56467 °/min
Orbital period
100.99 mins
BSTAR
0.001168
Loading maneuver chart data...
Computing Atmospheric mass density...

Documentation

Showing up to 5 results
|